Hourly Weather Roundup
Issued by NWS Central Illinois

Home | Current Version | Previous Version | Text Only | Print | Product List | Glossary On
Versions: 1 2 3 4 5 6 7 8 9 10 11 12 13 14 15 16 17 18 19 20 21 22 23 24 25 26 27 28 29 30 31 32 33 34 35 36 37 38 39 40 41 42 43 44 45 46 47 48 49 50
000
NZUS43 KILX 301110
HWRILX

AREA WEATHER ROUNDUP
NATIONAL WEATHER SERVICE, LINCOLN IL
600 AM CDT MON MAY 30 2016


CITY           SKY/WX    TMP DP  RH WIND       PRES   REMARKS
BLOOMINGTON    CLOUDY    63  60  90 SW6       30.06R
CHAMPAIGN      CLOUDY    62  57  83 SW7       30.06R
DANVILLE       CLOUDY    60  58  93 CALM      30.03R
DECATUR        PTCLDY    62  57  83 SW3       30.06R
EFFINGHAM      CLEAR     61  61 100 CALM      30.08R
FLORA          CLEAR     63  63  97 CALM      30.07R
GALESBURG      PTCLDY    61  58  91 CALM      30.03R
JACKSONVILLE   MOCLDY    64  61  90 CALM      30.05R
LACON          CLOUDY    62  59  90 CALM      30.02S
LAWRENCEVILLE  PTCLDY    63  61  93 CALM      30.06R
LITCHFIELD     CLEAR     62  58  89 CALM      30.06S
$$


CITY           SKY/WX    TMP DP  RH WIND       PRES   REMARKS
LINCOLN        CLEAR     63  60  90 CALM      30.05R
MACOMB         CLEAR     62  60  93 CALM      30.05S
MATTOON        CLOUDY    61  56  83 CALM      30.06R
MT CARMEL AP   PTCLDY    61  59  93 CALM      30.06S
OLNEY-NOBLE AP CLEAR     61  61 100 CALM      30.07R
PARIS          PTCLDY    60  58  93 CALM      30.07R
PEORIA         CLEAR     63  59  87 CALM      30.03S
PONTIAC        CLOUDY    63  60  90 S6        30.05R
RANTOUL        CLOUDY    63  60  88 CALM      30.06R
ROBINSON       CLOUDY    57  57 100 CALM      30.07R
SPRINGFIELD    CLOUDY    65  61  87 CALM      30.05R
TAYLORVILLE    PTCLDY    62  60  96 CALM      30.06R
$$

...REGIONAL REPORTS...


CITY           SKY/WX    TMP DP  RH WIND       PRES   REMARKS
CHICAGO O`HARE PTCLDY    64  58  80 W5        30.01R
KANKAKEE       CLOUDY    59  56  90 CALM      30.04S
MOLINE         PTCLDY    62  58  86 S3        30.01S
MOUNT STERLING CLEAR     61  60  97 CALM      30.03S
MOUNT VERNON   MOCLDY    59  54  82 CALM      30.08R
PITTSFIELD     CLEAR     65  62  90 CALM      30.05S
QUINCY         CLEAR     64  62  93 S6        30.03S
ROCKFORD       PTCLDY    61  58  90 CALM      30.04R
$$


CITY           SKY/WX    TMP DP  RH WIND       PRES   REMARKS
BURLINGTON     CLEAR     65  62  90 CALM      30.02R
CEDAR RAPIDS   CLOUDY    59  58  96 CALM      30.02R
DES MOINES     CLOUDY    65  59  81 S6        30.00R
KIRKSVILLE     CLEAR     61  59  93 SW5       30.05R
OTTUMWA        TSTM      65  60  84 SW6       30.02F
ST LOUIS       PTCLDY    67  61  81 CALM      30.06R
$$


CITY           SKY/WX    TMP DP  RH WIND       PRES   REMARKS
TERRE HAUTE    CLOUDY    59  57  93 CALM      30.06R
EVANSVILLE     CLOUDY    63  59  87 CALM      30.06R
INDIANAPOLIS   CLOUDY    66  56  70 CALM      30.03S
LAFAYETTE      CLOUDY    59  57  93 CALM      30.04S
MADISON        PTCLDY    57  56  96 CALM      30.01R FOG
MILWAUKEE      CLEAR     64  57  78 W5        30.00R
$$





USA.gov is the U.S. government's official web portal to all federal, state and local government web resources and services.